Chickamauga Lake Weather Center

Moon Phase Calendar



Chickamauga Lake Water Level
Online Cameras

 


      

Current Conditions in Sale Creek
6/23/2024 7:34:10 AM

70°F
Feels Like 72
Clear
Humidity
100%
Pressure
29.97"
Wind
0
Dew Point
70°F
UV Index
1/10 (Low)
Visibility
6 mi

Hourly Forecast

Date & Time Sun, Jun 23
7:00 AM
Sun, Jun 23
8:00 AM
Sun, Jun 23
9:00 AM
Sun, Jun 23
10:00 AM
Sun, Jun 23
11:00 AM
Sun, Jun 23
12:00 PM
Sun, Jun 23
1:00 PM
Sun, Jun 23
2:00 PM
Sun, Jun 23
3:00 PM
Sun, Jun 23
4:00 PM
Sun, Jun 23
5:00 PM
Sun, Jun 23
6:00 PM
Sun, Jun 23
7:00 PM
Sun, Jun 23
8:00 PM
Sun, Jun 23
9:00 PM
Sun, Jun 23
10:00 PM
Sun, Jun 23
11:00 PM
Mon, Jun 24
12:00 AM
Mon, Jun 24
1:00 AM
Mon, Jun 24
2:00 AM
Mon, Jun 24
3:00 AM
Mon, Jun 24
4:00 AM
Mon, Jun 24
5:00 AM
Mon, Jun 24
6:00 AM
Mon, Jun 24
7:00 AM
Mon, Jun 24
8:00 AM
Mon, Jun 24
9:00 AM
Mon, Jun 24
10:00 AM
Mon, Jun 24
11:00 AM
Mon, Jun 24
12:00 PM
Mon, Jun 24
1:00 PM
Mon, Jun 24
2:00 PM
Mon, Jun 24
3:00 PM
Mon, Jun 24
4:00 PM
Mon, Jun 24
5:00 PM
Mon, Jun 24
6:00 PM
Mon, Jun 24
7:00 PM
Mon, Jun 24
8:00 PM
Mon, Jun 24
9:00 PM
Mon, Jun 24
10:00 PM
Mon, Jun 24
11:00 PM
Tue, Jun 25
12:00 AM
Tue, Jun 25
1:00 AM
Tue, Jun 25
2:00 AM
Tue, Jun 25
3:00 AM
Tue, Jun 25
4:00 AM
Tue, Jun 25
5:00 AM
Tue, Jun 25
6:00 AM
Condition
Clear

Clear

Clear

Clear

Clouds

Clouds

Clouds

Clouds

Clouds

Clouds

Clouds

Clouds

Clouds

Clouds

Clouds

Rain

Rain

Rain

Rain

Rain

Clouds

Clouds

Clouds

Clouds

Clouds

Clouds

Clouds

Clouds

Clear

Clear

Clear

Clear

Clouds

Clouds

Clear

Clear

Clear

Clear

Clear

Clear

Clear

Clear

Clear

Clear

Clear

Clear

Clear

Clear
Temperature 70°F70°F72°F76°F81°F87°F93°F94°F94°F94°F92°F89°F87°F84°F80°F77°F76°F74°F73°F72°F71°F71°F70°F70°F70°F73°F76°F80°F83°F86°F89°F91°F92°F93°F93°F92°F88°F82°F76°F74°F72°F71°F69°F68°F68°F67°F66°F65°F
Feels Like 72°F72°F73°F77°F84°F89°F93°F94°F95°F95°F94°F93°F92°F88°F80°F78°F77°F75°F74°F73°F72°F72°F72°F71°F72°F74°F78°F80°F85°F86°F88°F90°F91°F92°F92°F91°F89°F84°F76°F74°F73°F71°F70°F69°F68°F67°F67°F66°F
Cloudiness 2%0%5%8%12%15%17%16%12%19%28%40%39%39%70%50%65%71%68%61%100%90%65%75%82%80%24%12%9%7%5%4%21%13%10%8%6%5%0%0%2%2%1%1%2%1%1%1%
Visibility 6 mi6 mi6 mi6 mi6 mi6 mi6 mi6 mi6 mi6 mi6 mi6 mi6 mi6 mi6 mi6 mi6 mi6 mi6 mi6 mi6 mi6 mi6 mi6 mi6 mi6 mi6 mi6 mi6 mi6 mi6 mi6 mi6 mi6 mi6 mi6 mi6 mi6 mi6 mi6 mi6 mi6 mi6 mi6 mi6 mi6 mi6 mi6 mi
Precipitation 0%0%0%0%0%0%0%0%0%0%0%0%0%0%0%50%59%96%94%88%2%0%0%0%0%0%0%0%0%0%0%0%0%0%0%0%0%0%0%0%0%0%0%0%0%0%0%0%
Humidity 96%100%93%81%65%49%34%33%33%36%41%50%55%64%70%76%81%88%91%93%96%97%97%97%97%93%83%66%52%41%36%32%31%30%30%32%43%57%68%71%74%78%81%84%85%87%89%90%
Dew Point 69°F70°F70°F70°F68°F66°F60°F60°F61°F62°F65°F68°F69°F70°F69°F69°F69°F69°F69°F69°F69°F69°F69°F69°F69°F71°F70°F67°F64°F60°F58°F57°F57°F57°F57°F58°F62°F65°F64°F63°F63°F63°F63°F63°F63°F63°F62°F62°F
Pressure 29.97"29.97"29.97"29.97"29.94"29.91"29.91"29.88"29.85"29.85"29.83"29.83"29.83"29.85"29.85"29.85"29.85"29.88"29.88"29.88"29.88"29.88"29.91"29.91"29.91"29.94"29.97"29.97"29.97"29.94"29.94"29.94"29.91"29.88"29.88"29.88"29.88"29.91"29.94"29.94"29.97"29.97"29.97"29.97"29.97"29.97"29.97"30"
Wind Speed 2.9 mph2.2 mph2.8 mph4 mph6 mph8.5 mph9.1 mph9.2 mph9.8 mph9.5 mph9.8 mph9.6 mph8.2 mph7 mph5.6 mph5.6 mph4.6 mph4 mph2.6 mph1.3 mph1.4 mph1.8 mph2.6 mph2.6 mph2.7 mph2.6 mph3.6 mph5 mph5.7 mph5.8 mph5.5 mph5.6 mph5.6 mph6.1 mph7 mph8.5 mph9.1 mph6.9 mph5.3 mph4.5 mph3.7 mph3.2 mph3.2 mph3.7 mph4.2 mph4.4 mph3.8 mph3.8 mph
Wind
Direction
216°
SW
219°
SW
222°
SW
237°
WSW
255°
WSW
261°
W
262°
W
266°
W
269°
W
277°
W
292°
WNW
294°
WNW
280°
W
279°
W
279°
W
285°
WNW
296°
WNW
300°
WNW
302°
WNW
319°
NW
324°
NW
322°
NW
313°
NW
310°
NW
322°
NW
327°
NNW
339°
NNW

N
15°
NNE
12°
NNE

N

N

N
355°
N
346°
NNW
337°
NNW
331°
NNW
330°
NNW
328°
NNW
339°
NNW
351°
N

N

N
10°
N

N

N
15°
NNE
14°
NNE

Daily Forecast

Date High Low Precip. Humidity
Today
Jun 23

Rain
94 °F
70 °F
59%
34%
Monday
Jun 24

Rain
93 °F
70 °F
96%
36%
Tuesday
Jun 25

Clear
97 °F
65 °F
0%
35%
Wednesday
Jun 26

Rain
79 °F
72 °F
100%
94%
Thursday
Jun 27

Rain
91 °F
69 °F
100%
40%
Friday
Jun 28

Clouds
96 °F
65 °F
0%
39%
Saturday
Jun 29

Clear
98 °F
71 °F
0%
40%
Sunday
Jun 30

Rain
95 °F
76 °F
100%
42%
Monday
Jul 1

Rain
95 °F
72 °F
100%
46%
Tuesday
Jul 2

Rain
95 °F
71 °F
79%
41%
Wednesday
Jul 3

Rain
94 °F
74 °F
62%
39%
Thursday
Jul 4

Clouds
97 °F
72 °F
32%
31%
Friday
Jul 5

Clouds
100 °F
69 °F
0%
29%
Saturday
Jul 6

Clouds
100 °F
76 °F
0%
34%
Sunday
Jul 7

Clouds
100 °F
77 °F
0%
31%
Monday
Jul 8

Clouds
101 °F
76 °F
0%
33%

Temperature 8-14 Day Outlook



Precipitation 8-14 Day Outlook




Quick Links
Chickamauga Lake News
Chickamauga Lake Photos
Chickamauga Lake Videos




About Us
Contact Us
Site Map
Search Site
Advertise With Us
   
www.ChickamaugaLake.info
THE CHICKAMAUGA LAKE WEBSITE

Copyright 2024, Lakes Online
Privacy    |    Legal